,,Stat5,,Stat1,,Stat2,,Stat3,,Stat4,,Wind1,,Wind1,
time,status,PA1M_AVG,status,PR1M_SUM,status,RH1M_AVG,status,SR1M_AVG,status,TA1M_AVG,status,W1dAve1m,status,W1sAve1m,
2001-04-25, 00:00:00,VALID,917.321,VALID,0,VALID,97.7978,VALID,-0.0679233,VALID,20.5432,VALID,109,VALID,0.84924,
2001-04-25, 00:01:01,VALID,917.3,VALID,0,VALID,97.9097,VALID,0,VALID,20.5432,VALID,116,VALID,0.742989,
2001-04-25, 00:02:01,VALID,917.29,VALID,0,VALID,98.0598,VALID,0,VALID,20.5561,VALID,113,VALID,0.649239,
2001-04-25, 00:03:00,VALID,917.272,VALID,0,VALID,98.1145,VALID,-0.0339617,VALID,20.5634,VALID,113,VALID,0.524038,
2001-04-25, 00:04:00,VALID,917.261,VALID,0,VALID,98.178,VALID,-0.0339617,VALID,20.5594,VALID,111,VALID,0.244655,
2001-04-25, 00:05:00,VALID,917.255,VALID,0,VALID,98.2493,VALID,-0.0169808,VALID,20.586,VALID,111,VALID,0.474359,
2001-04-25, 00:06:01,VALID,917.245,VALID,0,VALID,98.2887,VALID,-0.0679233,VALID,20.5855,VALID,90,VALID,0.497768,
2001-04-25, 00:07:00,VALID,917.245,VALID,0,VALID,98.295,VALID,-0.0169808,VALID,20.5688,VALID,85,VALID,0.575195,
2001-04-25, 00:08:00,VALID,917.236,VALID,0,VALID,98.2963,VALID,-0.0169808,VALID,20.5656,VALID,87,VALID,0.597005,
2001-04-25, 00:09:01,VALID,917.218,VALID,0,VALID,98.3243,VALID,-0.0339617,VALID,20.5658,VALID,95,VALID,0.535156,
2001-04-25, 00:10:00,VALID,917.209,VALID,0,VALID,98.3434,VALID,-0.0169808,VALID,20.579,VALID,94,VALID,0.591005,
2001-04-25, 00:11:01,VALID,917.191,VALID,0,VALID,98.3192,VALID,-0.0339617,VALID,20.5661,VALID,99,VALID,0.534539,
2001-04-25, 00:12:00,VALID,917.163,VALID,0,VALID,98.3535,VALID,-0.0509425,VALID,20.5596,VALID,97,VALID,0.466216,
2001-04-25, 00:13:00,VALID,917.149,VALID,0,VALID,98.3853,VALID,0,VALID,20.5628,VALID,104,VALID,0.607052,
2001-04-25, 00:14:01,VALID,917.109,VALID,0,VALID,98.4057,VALID,-0.0679233,VALID,20.5628,VALID,118,VALID,0.492857,
2001-04-25, 00:15:00,VALID,917.084,VALID,0,VALID,98.4387,VALID,-0.0169808,VALID,20.5755,VALID,135,VALID,0.581826,
2001-04-25, 00:16:01,VALID,917.07,VALID,0,VALID,98.4247,VALID,0,VALID,20.5623,VALID,143,VALID,0.662373,
2001-04-25, 00:17:01,VALID,917.054,VALID,0,VALID,98.4591,VALID,-0.0169808,VALID,20.5491,VALID,144,VALID,0.64596,
2001-04-25, 00:18:00,VALID,917.051,VALID,0,VALID,98.4972,VALID,-0.0169808,VALID,20.5656,VALID,144,VALID,0.627344,
2001-04-25, 00:19:01,VALID,917.033,VALID,0,VALID,98.5214,VALID,-0.0339617,VALID,20.572,VALID,152,VALID,0.613898,
2001-04-25, 00:20:01,VALID,917.013,VALID,0,VALID,98.5379,VALID,-0.0509425,VALID,20.5688,VALID,151,VALID,0.406867,
2001-04-25, 00:21:00,VALID,917.001,VALID,0,VALID,98.5557,VALID,-0.0169808,VALID,20.5693,VALID,155,VALID,0.393555,
2001-04-25, 00:22:01,VALID,916.992,VALID,0,VALID,98.5659,VALID,-0.0339617,VALID,20.576,VALID,156,VALID,0.204327,
2001-04-25, 00:23:01,VALID,916.976,VALID,0,VALID,98.5824,VALID,-0.0169808,VALID,20.5688,VALID,146,VALID,0.100893,
2001-04-25, 00:24:00,VALID,916.953,VALID,0,VALID,98.6129,VALID,-0.0339617,VALID,20.5688,VALID,138,VALID,0.141211,
2001-04-25, 00:25:01,VALID,916.934,VALID,0,VALID,98.6307,VALID,-0.0509425,VALID,20.5822,VALID,137,VALID,0,
2001-04-25, 00:26:01,VALID,916.91,VALID,0,VALID,98.6498,VALID,0,VALID,20.5855,VALID,137,VALID,0,
2001-04-25, 00:27:01,VALID,916.879,VALID,0,VALID,98.6663,VALID,-0.0169808,VALID,20.6081,VALID,137,VALID,0,
2001-04-25, 00:28:01,VALID,916.851,VALID,0,VALID,98.6778,VALID,0,VALID,20.5976,VALID,137,VALID,0,
2001-04-25, 00:29:00,VALID,916.818,VALID,0,VALID,98.688,VALID,0,VALID,20.6173,VALID,137,VALID,0,
2001-04-25, 00:30:00,VALID,916.803,VALID,0,VALID,98.6994,VALID,-0.0339617,VALID,20.6337,VALID,152,VALID,0,
2001-04-25, 00:31:01,VALID,916.796,VALID,0,VALID,98.6867,VALID,-0.0679233,VALID,20.6407,VALID,163,VALID,0,
2001-04-25, 00:32:00,VALID,916.777,VALID,0,VALID,98.6702,VALID,-0.0339617,VALID,20.6396,VALID,163,VALID,0,
2001-04-25, 00:33:01,VALID,916.764,VALID,0,VALID,98.6613,VALID,0,VALID,20.6396,VALID,163,VALID,0,
2001-04-25, 00:34:01,VALID,916.749,VALID,0,VALID,98.646,VALID,-0.0169808,VALID,20.6394,VALID,168,VALID,0.0128205,
2001-04-25, 00:35:01,VALID,916.731,VALID,0,VALID,98.6384,VALID,-0.0169808,VALID,20.6329,VALID,169,VALID,0.208133,
2001-04-25, 00:36:01,VALID,916.73,VALID,0,VALID,98.6536,VALID,-0.0339617,VALID,20.6329,VALID,169,VALID,0.237331,
2001-04-25, 00:37:01,VALID,916.73,VALID,0,VALID,98.6498,VALID,-0.0169808,VALID,20.6496,VALID,168,VALID,0.121505,
2001-04-25, 00:38:01,VALID,916.74,VALID,0,VALID,98.6371,VALID,-0.0509425,VALID,20.6663,VALID,162,VALID,0.364984,
2001-04-25, 00:39:01,VALID,916.735,VALID,0,VALID,98.618,VALID,0,VALID,20.6663,VALID,162,VALID,0.467949,
2001-04-25, 00:40:01,VALID,916.744,VALID,0,VALID,98.6015,VALID,0,VALID,20.6493,VALID,163,VALID,0.320542,
2001-04-25, 00:41:01,VALID,916.74,VALID,0,VALID,98.5888,VALID,-0.0339617,VALID,20.6628,VALID,163,VALID,0.175781,
2001-04-25, 00:42:01,VALID,916.742,VALID,0,VALID,98.5659,VALID,-0.0169808,VALID,20.6663,VALID,163,VALID,0.0375845,
2001-04-25, 00:43:01,VALID,916.759,VALID,0,VALID,98.5417,VALID,-0.0169808,VALID,20.6566,VALID,163,VALID,0,
2001-04-25, 00:44:01,VALID,916.766,VALID,0,VALID,98.5265,VALID,-0.0679233,VALID,20.6566,VALID,163,VALID,0,
2001-04-25, 00:45:01,VALID,916.768,VALID,0,VALID,98.5163,VALID,-0.0509425,VALID,20.6762,VALID,163,VALID,0,
2001-04-25, 00:46:01,VALID,916.774,VALID,0,VALID,98.5087,VALID,0,VALID,20.6692,VALID,163,VALID,0,
2001-04-25, 00:47:01,VALID,916.782,VALID,0,VALID,98.4998,VALID,-0.0509425,VALID,20.6725,VALID,163,VALID,0,
2001-04-25, 00:48:01,VALID,916.795,VALID,0,VALID,98.4998,VALID,-0.0339617,VALID,20.6891,VALID,163,VALID,0,
2001-04-25, 00:49:01,VALID,916.792,VALID,0,VALID,98.4781,VALID,-0.0339617,VALID,20.6953,VALID,163,VALID,0,
2001-04-25, 00:50:01,VALID,916.772,VALID,0,VALID,98.4718,VALID,0,VALID,20.6851,VALID,163,VALID,0,
2001-04-25, 00:51:01,VALID,916.766,VALID,0,VALID,98.4705,VALID,-0.0169808,VALID,20.7083,VALID,163,VALID,0,
2001-04-25, 00:52:01,VALID,916.754,VALID,0,VALID,98.4743,VALID,0,VALID,20.708,VALID,163,VALID,0,
2001-04-25, 00:53:00,VALID,916.744,VALID,0,VALID,98.4464,VALID,-0.0509425,VALID,20.7147,VALID,163,VALID,0,
2001-04-25, 00:54:00,VALID,916.753,VALID,0,VALID,98.4336,VALID,0,VALID,20.7411,VALID,163,VALID,0,
2001-04-25, 00:55:00,VALID,916.748,VALID,0,VALID,98.3929,VALID,-0.0169808,VALID,20.7142,VALID,163,VALID,0,
2001-04-25, 00:56:00,VALID,916.738,VALID,0,VALID,98.3777,VALID,0,VALID,20.7142,VALID,163,VALID,0,
2001-04-25, 00:57:00,VALID,916.73,VALID,0,VALID,98.3612,VALID,0,VALID,20.7242,VALID,163,VALID,0,
2001-04-25, 00:58:00,VALID,916.729,VALID,0,VALID,98.3484,VALID,0,VALID,20.7344,VALID,163,VALID,0,
2001-04-25, 00:59:00,VALID,916.724,VALID,0,VALID,98.3294,VALID,0,VALID,20.7371,VALID,163,VALID,0,
2001-04-25, 01:00:00,VALID,916.718,VALID,0,VALID,98.323,VALID,-0.0509425,VALID,20.7371,VALID,137,VALID,0.271701,
2001-04-25, 01:01:00,VALID,916.711,VALID,0,VALID,98.2989,VALID,-0.0339617,VALID,20.7373,VALID,123,VALID,0.470228,
2001-04-25, 01:02:00,VALID,916.695,VALID,0,VALID,98.2391,VALID,-0.0169808,VALID,20.7209,VALID,113,VALID,0.628084,
2001-04-25, 01:03:00,VALID,916.665,VALID,0,VALID,98.1997,VALID,-0.0169808,VALID,20.7209,VALID,100,VALID,0.635557,
2001-04-25, 01:04:00,VALID,916.65,VALID,0,VALID,98.1831,VALID,0,VALID,20.7112,VALID,107,VALID,0.682221,
2001-04-25, 01:05:00,VALID,916.639,VALID,0,VALID,98.1234,VALID,0,VALID,20.6787,VALID,104,VALID,0.792188,
2001-04-25, 01:06:00,VALID,916.61,VALID,0,VALID,98.1119,VALID,0,VALID,20.6625,VALID,104,VALID,0.624794,
2001-04-25, 01:07:00,VALID,916.597,VALID,0,VALID,98.103,VALID,-0.0339617,VALID,20.6466,VALID,105,VALID,0.771326,
2001-04-25, 01:08:00,VALID,916.585,VALID,0,VALID,98.1246,VALID,0,VALID,20.6205,VALID,105,VALID,0.669969,
2001-04-25, 01:09:00,VALID,916.568,VALID,0,VALID,98.1564,VALID,-0.0169808,VALID,20.6173,VALID,105,VALID,0.548047,
2001-04-25, 01:10:00,VALID,916.553,VALID,0,VALID,98.2124,VALID,0,VALID,20.6011,VALID,106,VALID,0.370271,
2001-04-25, 01:11:00,VALID,916.538,VALID,0,VALID,98.2645,VALID,0,VALID,20.6073,VALID,107,VALID,0.351974,
2001-04-25, 01:12:00,VALID,916.509,VALID,0,VALID,98.2989,VALID,0,VALID,20.6008,VALID,107,VALID,0.15332,
2001-04-25, 01:13:00,VALID,916.507,VALID,0,VALID,98.3472,VALID,-0.0339617,VALID,20.6103,VALID,107,VALID,0.0594952,
2001-04-25, 01:14:00,VALID,916.492,VALID,0,VALID,98.3891,VALID,-0.0339617,VALID,20.6404,VALID,107,VALID,0,
2001-04-25, 01:15:00,VALID,916.475,VALID,0,VALID,98.3968,VALID,0,VALID,20.6361,VALID,107,VALID,0,
2001-04-25, 01:16:00,VALID,916.442,VALID,0,VALID,98.3866,VALID,-0.0169808,VALID,20.6498,VALID,107,VALID,0,
2001-04-25, 01:17:00,VALID,916.432,VALID,0,VALID,98.3764,VALID,0,VALID,20.6399,VALID,107,VALID,0,
2001-04-25, 01:18:00,VALID,916.429,VALID,0,VALID,98.3713,VALID,0,VALID,20.6563,VALID,107,VALID,0,
2001-04-25, 01:19:00,VALID,916.403,VALID,0,VALID,98.3535,VALID,-0.0169808,VALID,20.6558,VALID,107,VALID,0,
2001-04-25, 01:20:00,VALID,916.397,VALID,0,VALID,98.3713,VALID,-0.0169808,VALID,20.6757,VALID,107,VALID,0,
2001-04-25, 01:21:00,VALID,916.373,VALID,0,VALID,98.3421,VALID,0,VALID,20.669,VALID,107,VALID,0,
2001-04-25, 01:22:00,VALID,916.367,VALID,0,VALID,98.3077,VALID,0,VALID,20.6655,VALID,99,VALID,0.0913628,
2001-04-25, 01:23:00,VALID,916.36,VALID,0,VALID,98.2772,VALID,0,VALID,20.6655,VALID,348,VALID,0.463682,
2001-04-25, 01:24:00,VALID,916.349,VALID,0,VALID,98.2925,VALID,0.0169808,VALID,20.6657,VALID,342,VALID,0.281044,
2001-04-25, 01:25:00,VALID,916.346,VALID,0,VALID,98.2671,VALID,-0.0169808,VALID,20.6595,VALID,342,VALID,0.20653,
2001-04-25, 01:26:00,VALID,916.323,VALID,0,VALID,98.2009,VALID,-0.0339617,VALID,20.6143,VALID,342,VALID,0.371394,
2001-04-25, 01:27:00,VALID,916.316,VALID,0,VALID,98.1869,VALID,-0.0169808,VALID,20.5747,VALID,342,VALID,0.332348,
2001-04-25, 01:28:00,VALID,916.303,VALID,0,VALID,98.1946,VALID,-0.0169808,VALID,20.5424,VALID,341,VALID,0.329153,
2001-04-25, 01:29:00,VALID,916.276,VALID,0,VALID,98.2353,VALID,0,VALID,20.5298,VALID,337,VALID,0.327123,
2001-04-25, 01:30:00,VALID,916.264,VALID,0,VALID,98.2861,VALID,-0.0169808,VALID,20.5338,VALID,337,VALID,0.317708,
2001-04-25, 01:31:00,VALID,916.249,VALID,0,VALID,98.323,VALID,-0.0169808,VALID,20.5106,VALID,346,VALID,0.408318,
2001-04-25, 01:32:00,VALID,916.252,VALID,0,VALID,98.3344,VALID,-0.0169808,VALID,20.491,VALID,359,VALID,0.583882,
2001-04-25, 01:33:00,VALID,916.22,VALID,0,VALID,98.3408,VALID,0,VALID,20.4619,VALID,346,VALID,0.493877,
2001-04-25, 01:34:00,VALID,916.221,VALID,0,VALID,98.379,VALID,0,VALID,20.4592,VALID,342,VALID,0.369792,
2001-04-25, 01:35:00,VALID,916.199,VALID,0,VALID,98.4171,VALID,-0.0339617,VALID,20.449,VALID,342,VALID,0.27474,
2001-04-25, 01:36:00,VALID,916.194,VALID,0,VALID,98.4527,VALID,0,VALID,20.4393,VALID,342,VALID,0.108141,
2001-04-25, 01:37:00,VALID,916.177,VALID,0,VALID,98.4807,VALID,-0.0169808,VALID,20.4398,VALID,342,VALID,0,
2001-04-25, 01:38:00,VALID,916.162,VALID,0,VALID,98.4998,VALID,0,VALID,20.443,VALID,342,VALID,0.0421875,
2001-04-25, 01:39:00,VALID,916.154,VALID,0,VALID,98.5405,VALID,0,VALID,20.4463,VALID,342,VALID,0,
2001-04-25, 01:40:00,VALID,916.134,VALID,0,VALID,98.5862,VALID,0,VALID,20.4619,VALID,342,VALID,0,
2001-04-25, 01:41:00,VALID,916.132,VALID,0,VALID,98.6104,VALID,-0.0169808,VALID,20.4786,VALID,342,VALID,0,
2001-04-25, 01:42:00,VALID,916.117,VALID,0,VALID,98.6256,VALID,0,VALID,20.4845,VALID,342,VALID,0,
2001-04-25, 01:43:00,VALID,916.125,VALID,0,VALID,98.6549,VALID,0,VALID,20.4878,VALID,342,VALID,0,
2001-04-25, 01:44:00,VALID,916.127,VALID,0,VALID,98.6638,VALID,0.0169808,VALID,20.5071,VALID,342,VALID,0,
2001-04-25, 01:45:00,VALID,916.119,VALID,0,VALID,98.6625,VALID,0,VALID,20.5104,VALID,342,VALID,0,
2001-04-25, 01:46:00,VALID,916.108,VALID,0,VALID,98.66,VALID,0,VALID,20.5106,VALID,342,VALID,0,
2001-04-25, 01:47:00,VALID,916.109,VALID,0,VALID,98.6702,VALID,0.0339617,VALID,20.5168,VALID,341,VALID,0,
2001-04-25, 01:48:00,VALID,916.101,VALID,0,VALID,98.6841,VALID,0,VALID,20.5133,VALID,330,VALID,0,
2001-04-25, 01:49:00,VALID,916.095,VALID,0,VALID,98.6829,VALID,0,VALID,20.5233,VALID,330,VALID,0,
2001-04-25, 01:50:00,VALID,916.076,VALID,0,VALID,98.6562,VALID,0,VALID,20.5099,VALID,330,VALID,0,
2001-04-25, 01:51:00,VALID,916.066,VALID,0,VALID,98.6587,VALID,-0.0169808,VALID,20.5171,VALID,330,VALID,0,
2001-04-25, 01:52:00,VALID,916.055,VALID,0,VALID,98.6396,VALID,0,VALID,20.5109,VALID,330,VALID,0,
2001-04-25, 01:53:00,VALID,916.044,VALID,0,VALID,98.6396,VALID,0,VALID,20.4942,VALID,329,VALID,0,
2001-04-25, 01:54:00,VALID,916.03,VALID,0,VALID,98.6524,VALID,0.0169808,VALID,20.4905,VALID,299,VALID,0,
2001-04-25, 01:55:00,VALID,916.016,VALID,0,VALID,98.6727,VALID,-0.0169808,VALID,20.5174,VALID,299,VALID,0,
2001-04-25, 01:56:00,VALID,916.018,VALID,0,VALID,98.6841,VALID,0,VALID,20.5265,VALID,299,VALID,0,
2001-04-25, 01:57:00,VALID,916.007,VALID,0,VALID,98.6994,VALID,0.0169808,VALID,20.5427,VALID,299,VALID,0,
2001-04-25, 01:58:00,VALID,915.993,VALID,0,VALID,98.6943,VALID,0,VALID,20.5561,VALID,299,VALID,0,
2001-04-25, 01:59:00,VALID,915.987,VALID,0,VALID,98.6829,VALID,-0.0169808,VALID,20.54,VALID,299,VALID,0,
2001-04-25, 02:00:00,VALID,915.992,VALID,0,VALID,98.6549,VALID,0,VALID,20.5241,VALID,299,VALID,0,
2001-04-25, 02:01:00,VALID,915.99,VALID,0,VALID,98.6524,VALID,-0.0339617,VALID,20.5141,VALID,299,VALID,0,
2001-04-25, 02:02:00,VALID,915.992,VALID,0,VALID,98.6587,VALID,0,VALID,20.5236,VALID,299,VALID,0,
2001-04-25, 02:03:00,VALID,915.975,VALID,0,VALID,98.6638,VALID,-0.0169808,VALID,20.527,VALID,299,VALID,0,
2001-04-25, 02:04:00,VALID,915.957,VALID,0,VALID,98.6676,VALID,-0.0169808,VALID,20.5133,VALID,299,VALID,0,
2001-04-25, 02:05:00,VALID,915.945,VALID,0,VALID,98.6816,VALID,0,VALID,20.5335,VALID,299,VALID,0,
2001-04-25, 02:06:00,VALID,915.905,VALID,0,VALID,98.6689,VALID,0,VALID,20.5131,VALID,299,VALID,0,
2001-04-25, 02:07:00,VALID,915.878,VALID,0,VALID,98.6536,VALID,-0.0169808,VALID,20.5066,VALID,299,VALID,0,
2001-04-25, 02:08:00,VALID,915.857,VALID,0,VALID,98.6689,VALID,-0.0339617,VALID,20.5104,VALID,299,VALID,0,
2001-04-25, 02:09:00,VALID,915.835,VALID,0,VALID,98.6587,VALID,-0.0339617,VALID,20.5139,VALID,299,VALID,0,
2001-04-25, 02:10:00,VALID,915.817,VALID,0,VALID,98.6587,VALID,-0.0169808,VALID,20.5144,VALID,299,VALID,0,
2001-04-25, 02:11:00,VALID,915.812,VALID,0,VALID,98.6854,VALID,-0.0679233,VALID,20.5174,VALID,299,VALID,0,
2001-04-25, 02:12:00,VALID,915.818,VALID,0,VALID,98.6829,VALID,-0.0679233,VALID,20.5268,VALID,299,VALID,0,
2001-04-25, 02:13:00,VALID,915.806,VALID,0,VALID,98.7032,VALID,-0.0849042,VALID,20.5462,VALID,300,VALID,0,
2001-04-25, 02:14:00,VALID,915.811,VALID,0,VALID,98.7274,VALID,-0.0849042,VALID,20.5758,VALID,301,VALID,0.035473,
2001-04-25, 02:15:00,VALID,915.799,VALID,0,VALID,98.7096,VALID,-0.0339617,VALID,20.572,VALID,211,VALID,0.29009,
2001-04-25, 02:16:00,VALID,915.788,VALID,0,VALID,98.6867,VALID,-0.0679233,VALID,20.5723,VALID,122,VALID,0.398638,
2001-04-25, 02:17:00,VALID,915.772,VALID,0,VALID,98.6791,VALID,-0.0339617,VALID,20.5725,VALID,122,VALID,0.36278,
2001-04-25, 02:18:00,VALID,915.766,VALID,0,VALID,98.6473,VALID,-0.0509425,VALID,20.5656,VALID,131,VALID,0.0810811,
2001-04-25, 02:19:00,VALID,915.747,VALID,0,VALID,98.6244,VALID,-0.0679233,VALID,20.5693,VALID,131,VALID,0,
2001-04-25, 02:20:00,VALID,915.728,VALID,0,VALID,98.5951,VALID,-0.0169808,VALID,20.5661,VALID,131,VALID,0,
2001-04-25, 02:21:00,VALID,915.718,VALID,0,VALID,98.5557,VALID,-0.0679233,VALID,20.5395,VALID,131,VALID,0.00120192,
2001-04-25, 02:22:00,VALID,915.722,VALID,0,VALID,98.5188,VALID,-0.0509425,VALID,20.523,VALID,131,VALID,0,
2001-04-25, 02:23:00,VALID,915.707,VALID,0,VALID,98.4769,VALID,-0.0509425,VALID,20.5233,VALID,131,VALID,0.0606497,
2001-04-25, 02:24:00,VALID,915.707,VALID,0,VALID,98.4667,VALID,-0.0339617,VALID,20.5561,VALID,99,VALID,0.26837,
2001-04-25, 02:25:00,VALID,915.695,VALID,0,VALID,98.4489,VALID,-0.0339617,VALID,20.5591,VALID,91,VALID,0.19553,
2001-04-25, 02:26:00,VALID,915.691,VALID,0,VALID,98.3484,VALID,-0.0509425,VALID,20.5532,VALID,91,VALID,0,
2001-04-25, 02:27:00,VALID,915.675,VALID,0,VALID,98.262,VALID,-0.0169808,VALID,20.5432,VALID,91,VALID,0,
2001-04-25, 02:28:00,VALID,915.659,VALID,0,VALID,98.1908,VALID,-0.0509425,VALID,20.537,VALID,91,VALID,0,
2001-04-25, 02:29:00,VALID,915.637,VALID,0,VALID,98.0839,VALID,-0.0509425,VALID,20.5233,VALID,91,VALID,0,
2001-04-25, 02:30:00,VALID,915.62,VALID,0,VALID,98.0216,VALID,-0.0509425,VALID,20.5367,VALID,91,VALID,0,
2001-04-25, 02:31:00,VALID,915.623,VALID,0,VALID,97.9937,VALID,0,VALID,20.5298,VALID,91,VALID,0,
2001-04-25, 02:32:00,VALID,915.62,VALID,0,VALID,97.9784,VALID,0,VALID,20.536,VALID,91,VALID,0,
2001-04-25, 02:33:00,VALID,915.612,VALID,0,VALID,97.9695,VALID,-0.0169808,VALID,20.5559,VALID,101,VALID,0,
2001-04-25, 02:34:00,VALID,915.609,VALID,0,VALID,97.8716,VALID,-0.0169808,VALID,20.536,VALID,102,VALID,0,
2001-04-25, 02:35:00,VALID,915.618,VALID,0,VALID,97.7622,VALID,0,VALID,20.5233,VALID,106,VALID,0,
2001-04-25, 02:36:00,VALID,915.626,VALID,0,VALID,97.7749,VALID,-0.0339617,VALID,20.5265,VALID,106,VALID,0,
2001-04-25, 02:37:00,VALID,915.62,VALID,0,VALID,97.808,VALID,-0.0339617,VALID,20.5435,VALID,106,VALID,0,
2001-04-25, 02:38:00,VALID,915.618,VALID,0,VALID,97.7597,VALID,0,VALID,20.5424,VALID,107,VALID,0,
2001-04-25, 02:39:00,VALID,915.609,VALID,0,VALID,97.7203,VALID,-0.0339617,VALID,20.5327,VALID,107,VALID,0,
2001-04-25, 02:40:00,VALID,915.606,VALID,0,VALID,97.6796,VALID,-0.0679233,VALID,20.5362,VALID,107,VALID,0,
2001-04-25, 02:41:00,VALID,915.592,VALID,0,VALID,97.6287,VALID,-0.0849042,VALID,20.5402,VALID,107,VALID,0,
2001-04-25, 02:42:00,VALID,915.567,VALID,0,VALID,97.5219,VALID,-0.0339617,VALID,20.5198,VALID,129,VALID,0,
2001-04-25, 02:43:00,VALID,915.561,VALID,0,VALID,97.4837,VALID,-0.0339617,VALID,20.5109,VALID,167,VALID,0,
2001-04-25, 02:44:00,VALID,915.556,VALID,0,VALID,97.471,VALID,-0.0169808,VALID,20.4942,VALID,169,VALID,0,
2001-04-25, 02:45:00,VALID,915.553,VALID,0,VALID,97.5855,VALID,-0.0339617,VALID,20.4878,VALID,169,VALID,0,
2001-04-25, 02:46:00,VALID,915.558,VALID,0,VALID,97.7114,VALID,-0.0679233,VALID,20.4974,VALID,167,VALID,0,
2001-04-25, 02:47:00,VALID,915.534,VALID,0,VALID,97.7343,VALID,-0.0509425,VALID,20.5039,VALID,163,VALID,0,
2001-04-25, 02:48:00,VALID,915.516,VALID,0,VALID,97.6834,VALID,-0.0339617,VALID,20.5044,VALID,162,VALID,0.0879934,
2001-04-25, 02:49:00,VALID,915.494,VALID,0,VALID,97.6758,VALID,-0.0339617,VALID,20.5009,VALID,170,VALID,0.401182,
2001-04-25, 02:50:00,VALID,915.478,VALID,0,VALID,97.5918,VALID,-0.0679233,VALID,20.4783,VALID,172,VALID,0.476181,
2001-04-25, 02:51:00,VALID,915.452,VALID,0,VALID,97.6287,VALID,-0.0679233,VALID,20.4657,VALID,168,VALID,0.323828,
2001-04-25, 02:52:00,VALID,915.431,VALID,0,VALID,97.6262,VALID,-0.0339617,VALID,20.4624,VALID,187,VALID,0.336554,
2001-04-25, 02:53:00,VALID,915.419,VALID,0,VALID,97.6363,VALID,0,VALID,20.4485,VALID,188,VALID,0.0807977,
2001-04-25, 02:54:00,VALID,915.403,VALID,0,VALID,97.663,VALID,0.0339617,VALID,20.4544,VALID,194,VALID,0.134766,
2001-04-25, 02:55:00,VALID,915.397,VALID,0,VALID,97.6529,VALID,0,VALID,20.4512,VALID,193,VALID,0.120393,
2001-04-25, 02:56:00,VALID,915.402,VALID,0,VALID,97.7686,VALID,0.0339617,VALID,20.4733,VALID,188,VALID,0.204688,
2001-04-25, 02:57:00,VALID,915.393,VALID,0,VALID,97.7699,VALID,0.0849042,VALID,20.5026,VALID,178,VALID,0.0527344,
2001-04-25, 02:58:00,VALID,915.396,VALID,0,VALID,97.7457,VALID,0.0509425,VALID,20.4994,VALID,163,VALID,0.324436,
2001-04-25, 02:59:00,VALID,915.394,VALID,0,VALID,97.7953,VALID,0.0339617,VALID,20.522,VALID,116,VALID,0.57704,
2001-04-25, 03:00:00,VALID,915.388,VALID,0,VALID,97.7686,VALID,0.0169808,VALID,20.5352,VALID,122,VALID,0.524038,
2001-04-25, 03:01:00,VALID,915.385,VALID,0,VALID,97.7457,VALID,0.0339617,VALID,20.5282,VALID,117,VALID,0.600123,
2001-04-25, 03:02:00,VALID,915.385,VALID,0,VALID,97.7393,VALID,0.0509425,VALID,20.5317,VALID,123,VALID,0.457237,
2001-04-25, 03:03:00,VALID,915.369,VALID,0,VALID,97.7788,VALID,0.0679233,VALID,20.5417,VALID,123,VALID,0.429899,
2001-04-25, 03:04:00,VALID,915.374,VALID,0,VALID,97.8284,VALID,0.0169808,VALID,20.5414,VALID,123,VALID,0.430556,
2001-04-25, 03:05:00,VALID,915.371,VALID,0,VALID,97.8563,VALID,0.0509425,VALID,20.5484,VALID,114,VALID,0.399282,
2001-04-25, 03:06:00,VALID,915.368,VALID,0,VALID,97.8754,VALID,0.0169808,VALID,20.5546,VALID,109,VALID,0.263363,
2001-04-25, 03:07:00,VALID,915.372,VALID,0,VALID,97.8894,VALID,0.0339617,VALID,20.5616,VALID,109,VALID,0.138021,
2001-04-25, 03:08:00,VALID,915.37,VALID,0,VALID,97.8779,VALID,-0.0339617,VALID,20.5521,VALID,131,VALID,0.245393,
2001-04-25, 03:09:00,VALID,915.361,VALID,0,VALID,97.7749,VALID,-0.0339617,VALID,20.5397,VALID,157,VALID,0.554054,
2001-04-25, 03:10:00,VALID,915.362,VALID,0,VALID,97.7165,VALID,0,VALID,20.53,VALID,167,VALID,0.57648,
2001-04-25, 03:11:00,VALID,915.357,VALID,0,VALID,97.7788,VALID,0,VALID,20.5206,VALID,167,VALID,0.536859,
2001-04-25, 03:12:00,VALID,915.359,VALID,0,VALID,97.8042,VALID,-0.0169808,VALID,20.4974,VALID,171,VALID,0.681891,
2001-04-25, 03:13:00,VALID,915.358,VALID,0,VALID,97.8284,VALID,-0.0339617,VALID,20.4821,VALID,176,VALID,0.692325,
2001-04-25, 03:14:00,VALID,915.339,VALID,0,VALID,97.8385,VALID,-0.0169808,VALID,20.4587,VALID,175,VALID,0.517887,
2001-04-25, 03:15:00,VALID,915.333,VALID,0,VALID,97.8805,VALID,-0.0169808,VALID,20.4525,VALID,170,VALID,0.222551,
2001-04-25, 03:16:00,VALID,915.328,VALID,0,VALID,97.9263,VALID,-0.0169808,VALID,20.4589,VALID,170,VALID,0.10395,
2001-04-25, 03:17:00,VALID,915.302,VALID,0,VALID,97.9212,VALID,-0.0169808,VALID,20.4592,VALID,170,VALID,0,
2001-04-25, 03:18:00,VALID,915.282,VALID,0,VALID,97.911,VALID,-0.0169808,VALID,20.4587,VALID,170,VALID,0,
2001-04-25, 03:19:00,VALID,915.273,VALID,0,VALID,97.8589,VALID,0,VALID,20.4557,VALID,174,VALID,0.0386402,
2001-04-25, 03:20:00,VALID,915.248,VALID,0,VALID,97.9046,VALID,0,VALID,20.4622,VALID,174,VALID,0.00267857,
2001-04-25, 03:21:00,VALID,915.225,VALID,0,VALID,97.7635,VALID,0,VALID,20.4554,VALID,174,VALID,0.0375,
2001-04-25, 03:22:00,VALID,915.221,VALID,0,VALID,97.5041,VALID,0,VALID,20.4455,VALID,166,VALID,0.354441,
2001-04-25, 03:23:00,VALID,915.196,VALID,0,VALID,97.3986,VALID,0,VALID,20.4589,VALID,164,VALID,0.163061,
2001-04-25, 03:24:00,VALID,915.175,VALID,0,VALID,97.349,VALID,0,VALID,20.4781,VALID,199,VALID,0.405469,
2001-04-25, 03:25:00,VALID,915.167,VALID,0,VALID,97.2447,VALID,-0.0169808,VALID,20.4907,VALID,198,VALID,0.299959,
2001-04-25, 03:26:00,VALID,915.153,VALID,0,VALID,97.2574,VALID,-0.0169808,VALID,20.5228,VALID,197,VALID,0.09375,
2001-04-25, 03:27:00,VALID,915.142,VALID,0,VALID,97.2752,VALID,0,VALID,20.5529,VALID,197,VALID,0.0144231,
2001-04-25, 03:28:00,VALID,915.127,VALID,0,VALID,97.2968,VALID,0,VALID,20.5755,VALID,197,VALID,0,
2001-04-25, 03:29:00,VALID,915.131,VALID,0,VALID,97.3108,VALID,0.0169808,VALID,20.578,VALID,197,VALID,0,
2001-04-25, 03:30:00,VALID,915.124,VALID,0,VALID,97.1582,VALID,0,VALID,20.5817,VALID,197,VALID,0,
2001-04-25, 03:31:00,VALID,915.135,VALID,0,VALID,97.1353,VALID,0,VALID,20.565,VALID,197,VALID,0,
2001-04-25, 03:32:00,VALID,915.138,VALID,0,VALID,97.2294,VALID,0,VALID,20.5782,VALID,197,VALID,0,
2001-04-25, 03:33:00,VALID,915.132,VALID,0,VALID,97.2612,VALID,-0.0169808,VALID,20.5849,VALID,197,VALID,0,
2001-04-25, 03:34:00,VALID,915.136,VALID,0,VALID,97.2231,VALID,0,VALID,20.5844,VALID,197,VALID,0,
2001-04-25, 03:35:00,VALID,915.145,VALID,0,VALID,97.1862,VALID,-0.0169808,VALID,20.5747,VALID,197,VALID,0,
2001-04-25, 03:36:00,VALID,915.129,VALID,0,VALID,97.3655,VALID,-0.0169808,VALID,20.6076,VALID,197,VALID,0,
2001-04-25, 03:37:00,VALID,915.126,VALID,0,VALID,97.4532,VALID,-0.0169808,VALID,20.6229,VALID,197,VALID,0,
2001-04-25, 03:38:00,VALID,915.125,VALID,0,VALID,97.3312,VALID,0,VALID,20.6262,VALID,197,VALID,0,
2001-04-25, 03:39:00,VALID,915.122,VALID,0,VALID,97.2142,VALID,0,VALID,20.6073,VALID,197,VALID,0,